Location: Berua Church
(35.0423°N, 88.5987°W)
Time: 14:14:47
(UTC+00:00)

CZ-3 Stage 3 - Pass Details

Date: 08 December 2019
Orbit: 408 x 34781 km, 30.7° (Epoch: 18 January)

Event Time Altitude Azimuth Distance (km) Brightness Sun altitude
Rises 11:47:02 0° 257° (WSW) 15,380 8.6 -12.6°
Reaches altitude 10° 12:07:12 10° 257° (WSW) 8,840 7.4 -8.8°
Maximum altitude 12:25:48 61° 182° (S) 1,287 3.8 -5.3°
Drops below altitude 10° 12:29:40 10° 100° (E) 2,019 6.3 -4.5°
Sets 12:31:01 0° 96° (E) 2,642 7.0 -4.3°
